Diboll, TX

8:43 AM CST on February 28, 2017 (GMT -0600)
Angelina County

Weather History for KLFK - August, 2013

Change the Weather History Date:

Saturday, August 3, 2013

  Actual Average Record
Temperature  
Mean Temperature 85 °F 83 °F  
Max Temperature 96 °F 95 °F 106 °F (2011)
Min Temperature 73 °F 72 °F 60 °F (1920)
Degree Days  
Heating Degree Days 0 0  
Month to date heating degree days 0 0  
Since 1 June heating degree days 0 0  
Since 1 July heating degree days 0 0  
Cooling Degree Days 20 18  
Month to date cooling degree days 63 54  
Year to date cooling degree days 1636 1525  
Since 1 June cooling degree days 1122 1056  
Growing Degree Days 34 (Base 50)    
Moisture  
Dew Point 73 °F    
Average Humidity 71    
Maximum Humidity 100    
Minimum Humidity 41    
Precipitation  
Precipitation 0.00 in 0.09 in 1.45 in (1955)
Month to date precipitation 0.08 0.28  
Year to date precipitation 24.81 27.53  
Snow  
Snow 0.00 in - - ()
Month to date snowfall 0.0  
Since 1 June snowfall 0.0  
Since 1 July snowfall 0.0  
Snow Depth 0.00 in    
Sea Level Pressure  
Sea Level Pressure 30.00 in    
Wind  
Wind Speed 4 mph (South)    
Max Wind Speed 12 mph    
Max Gust Speed 15 mph    
Visibility 10 miles    
Events      
T = Trace of Precipitation, MM = Missing Value Source: NWS Daily Summary

Daily Weather History Graph

Daily Weather History Graph

Search for Another Location

Airport or City:

Trip Planner

Search our weather history database for the weather conditions in past years. The results will help you decide how hot, cold, wet, or windy it might be!

Date:

Astronomy

Aug. 03, 2013 Rise Set
Actual Time 6:37 AM CDT 8:12 PM CDT
Civil Twilight 6:11 AM CDT 8:38 PM CDT
Nautical Twilight 5:39 AM CDT 9:10 PM CDT
Astronomical Twilight 5:06 AM CDT 9:43 PM CDT
Moon 3:49 AM CDT (8/3) 5:53 PM CDT (8/3)
Length of Visible Light 14h 27m
Length of Day
13h 35m
Waning Crescent, 9% of the Moon is Illuminated
Aug 3
Waning Crescent
Aug 6
New
Aug 14
First Quarter
Aug 20
Full
Aug 28
Last Quarter

Hourly Weather History & Observations

Time (CDT) Temp. Heat Index Dew Point Humidity Pressure Visibility Wind Dir Wind Speed Gust Speed Precip Events Conditions
12:53 AM 80.1 °F 84.2 °F 73.0 °F 79% 29.97 in 10.0 mi South 3.5 mph - N/A   Clear
1:53 AM 79.0 °F - 73.9 °F 84% 29.97 in 10.0 mi Calm Calm - N/A   Clear
2:53 AM 78.1 °F - 73.9 °F 87% 29.97 in 10.0 mi South 5.8 mph - N/A   Clear
3:53 AM 77.0 °F - 75.0 °F 94% 29.96 in 10.0 mi South 5.8 mph - N/A   Clear
4:53 AM 75.9 °F - 73.9 °F 94% 29.97 in 10.0 mi Calm Calm - N/A   Clear
5:53 AM 73.9 °F - 73.0 °F 97% 29.98 in 7.0 mi ESE 3.5 mph - N/A   Clear
6:53 AM 73.0 °F - 73.0 °F 100% 29.99 in 5.0 mi Calm Calm - N/A   Clear
7:53 AM 75.9 °F - 75.0 °F 97% 30.01 in 5.0 mi Calm Calm - N/A   Clear
8:29 AM 78.8 °F - 75.2 °F 89% 30.03 in 9.0 mi Calm Calm - N/A   Mostly Cloudy
8:41 AM 78.8 °F - 75.2 °F 89% 30.03 in 10.0 mi SW 6.9 mph - N/A   Scattered Clouds
8:47 AM 78.8 °F - 75.2 °F 89% 30.04 in 10.0 mi SW 6.9 mph - N/A   Mostly Cloudy
8:53 AM 80.1 °F 85.4 °F 75.9 °F 87% 30.02 in 10.0 mi Variable 4.6 mph - N/A   Scattered Clouds
9:23 AM 80.6 °F 86.2 °F 75.2 °F 84% 30.04 in 10.0 mi SSW 9.2 mph - N/A   Mostly Cloudy
9:30 AM 80.6 °F 86.2 °F 75.2 °F 84% 30.05 in 10.0 mi WSW 8.1 mph - N/A   Mostly Cloudy
9:53 AM 82.9 °F 89.4 °F 73.9 °F 74% 30.04 in 10.0 mi SW 6.9 mph - N/A   Scattered Clouds
10:53 AM 86.0 °F 93.0 °F 73.0 °F 65% 30.04 in 10.0 mi Variable 5.8 mph - N/A   Partly Cloudy
11:53 AM 87.1 °F 93.6 °F 72.0 °F 61% 30.04 in 10.0 mi South 8.1 mph - N/A   Clear
12:53 PM 89.1 °F 95.0 °F 71.1 °F 55% 30.02 in 10.0 mi SW 4.6 mph - N/A   Clear
1:53 PM 91.0 °F 95.6 °F 69.1 °F 48% 30.01 in 10.0 mi South 5.8 mph - N/A   Clear
2:06 PM 91.4 °F 96.8 °F 69.8 °F 49% 30.02 in 10.0 mi South 6.9 mph - N/A   Partly Cloudy
2:53 PM 93.9 °F 99.1 °F 69.1 °F 44% 29.99 in 10.0 mi SSW 5.8 mph - N/A   Clear
3:53 PM 93.9 °F 97.5 °F 66.9 °F 41% 29.98 in 10.0 mi SSE 4.6 mph - N/A   Clear
4:53 PM 95.0 °F 99.5 °F 68.0 °F 41% 29.97 in 10.0 mi East 3.5 mph - N/A   Clear
5:53 PM 95.0 °F 99.5 °F 68.0 °F 41% 29.96 in 10.0 mi Calm Calm - N/A   Clear
6:53 PM 95.0 °F 100.7 °F 69.1 °F 43% 29.96 in 10.0 mi Calm Calm - N/A   Clear
7:53 PM 90.0 °F 97.9 °F 73.0 °F 57% 29.96 in 10.0 mi Calm Calm - N/A   Clear
8:53 PM 86.0 °F 93.8 °F 73.9 °F 67% 29.98 in 10.0 mi ESE 3.5 mph - N/A   Clear
9:53 PM 84.9 °F 91.4 °F 73.0 °F 67% 30.00 in 10.0 mi SE 6.9 mph - N/A   Clear
10:53 PM 82.9 °F 89.4 °F 73.9 °F 74% 30.02 in 10.0 mi SE 3.5 mph - N/A   Clear
11:53 PM 81.0 °F 86.7 °F 75.0 °F 82% 30.03 in 10.0 mi South 4.6 mph - N/A   Clear